Temp
48 49 51 50 51 51 52 51 51 52 52 52 52 52 51 51 52 43 39 40 37 29 33 35 36 32 31 32 27 26 29 28 26 25 23 23 18 21 18 22 19 17 12 12 11 3 7 26 26 22 26 25 26 26
48 48 49 50 50 51 51 51 52 51 51 51 51 51 51 51 51 48 38 40 40 32 32 35 37 39 39 38 30 25 29 25 29 22 17 19 14 14 13 12 23 19 24 17 20 18 28 28 29 32 30 27 28 29
47 47 48 49 48 50 50 50 51 51 50 51 51 51 52 51 51 48 40 37 37 31 29 30 31 39 40 40 40 29 26 31 30 30 20 17 13 21 10 12 15 21 24 20 20 24 26 29 31 31 31 31 32 31
46 46 47 48 48 49 50 50 50 50 50 50 50 51 51 50 51 49 40 41 38 33 23 27 33 33 40 40 38 38 34 32 31 30 22 15 12 26 16 21 20 24 24 18 18 26 26 29 30 32 32 31 30 30
45 46 47 47 48 48 50 49 49 50 50 50 50 50 50 50 50 48 43 42 42 33 23 21 27 33 36 37 36 35 34 31 28 22 16 15 21 21 17 23 17 26 26 21 19 30 30 32 32 34 32 32 30 28
45 45 46 45 45 47 48 48 49 48 48 48 48 49 49 49 49 43 33 41 44 40 31 20 29 26 31 33 33 32 32 29 28 25 22 23 29 26 11 9 31 34 31 33 29 33 33 35 34 32 31 30 30 27
45 45 45 44 44 47 48 48 48 48 46 47 48 47 48 47 43 34 32 38 45 42 31 25 17 26 29 28 25 28 30 29 27 25 21 25 25 29 21 12 33 31 31 30 32 31 28 29 30 30 29 29 26 24
44 45 45 43 43 46 47 48 48 48 48 48 47 47 46 45 43 36 39 44 44 35 32 25 15 22 30 23 25 28 26 28 28 28 26 21 27 27 18 27 31 32 30 29 30 31 35 32 27 28 24 20 19 21
43 44 45 43 43 47 47 47 47 47 47 47 47 47 40 37 33 34 44 44 40 33 27 24 15 11 28 29 30 28 30 23 29 25 24 28 22 19 25 29 29 31 30 32 34 24 25 24 28 23 20 14 19 22
43 44 45 45 43 45 46 47 46 46 46 46 38 32 29 33 42 42 36 32 31 30 30 24 15 9 27 23 19 24 27 24 20 24 27 23 23 30 32 27 30 32 32 32 19 18 8 15 22 21 19 22 22 19
40 44 44 44 41 44 46 46 45 44 43 33 30 28 32 41 34 29 24 24 25 22 27 14 14 15 22 14 16 26 19 22 17 18 19 18 14 29 33 29 34 31 31 28 30 31 22 22 22 20 17 14 11 9
38 42 42 41 42 45 45 45 44 36 34 35 34 35 34 31 27 23 22 17 19 14 12 21 18 19 15 20 16 21 17 19 15 19 17 14 20 30 23 27 32 32 31 22 20 24 14 14 9 10 8 6 2 1
37 40 40 39 40 43 44 45 42 41 38 33 29 25 26 25 19 16 13 14 9 3 13 17 13 19 18 23 20 18 11 11 12 15 14 13 27 19 15 15 15 4 6 9 5 6 5 2 -0 -1 -2 -3 -4 -7
41 39 40 40 42 44 45 45 43 39 31 23 22 17 18 15 18 13 10 10 14 11 14 13 18 16 16 19 22 16 18 15 11 8 6 22 8 -1 1 -1 -1 -1 -1 2 -1 -0 -2 -3 -6 -7 -6 -7 -7 -9
41 41 41 41 42 42 43 44 44 36 27 22 22 15 15 10 0 -6 -8 2 7 9 19 16 16 24 17 20 22 18 12 11 12 9 8 1 -3 -5 -4 -7 -9 -7 -6 -8 -10 -7 -6 -6 -8 -12 -14 -13 -13 -14
39 37 35 39 38 40 40 37 34 32 28 23 20 14 0 4 2 1 -1 6 11 19 16 19 15 17 17 18 16 14 11 8 8 2 -4 -3 -8 -9 -10 -10 -9 -8 -9 -10 -10 -9 -6 -9 -8 -13 -19 -20 -20 -16
34 18 37 38 36 34 34 25 27 23 17 18 12 -12 -4 1 8 5 6 12 17 19 13 15 14 14 17 11 10 5 4 -0 -4 -4 -5 -6 -7 -9 -6 -10 -13 -12 -12 -8 -9 -10 -13 -13 -13 -12 -13 -19 -23 -22
17 24 36 36 27 22 10 13 19 18 11 8 11 -1 -8 -10 -6 -3 2 9 12 14 14 14 18 15 13 12 12 2 1 -1 -4 -4 -5 -6 -7 -11 -13 -14 -15 -14 -10 -11 -10 -14 -14 -13 -12 -16 -19 -23 -20 -19
24 25 33 33 24 7 6 7 8 7 -1 -3 4 3 3 0 2 2 4 9 11 12 14 15 13 8 -1 -5 -8 -4 -4 -4 -3 -3 -5 -7 -7 -8 -9 -10 -12 -14 -15 -21 -19 -16 -18 -18 -16 -16 -16 -15 -15 -21
32 31 29 29 25 6 -1 2 2 1 -6 -2 -2 -2 2 3 2 1 3 5 10 6 -2 -3 -10 -11 -10 -9 -9 -10 -8 -6 -5 -3 -3 -5 -7 -9 -12 -12 -12 -15 -15 -16 -15 -15 -17 -18 -19 -19 -19 -14 -12 -11
23 24 24 14 11 6 -1 -2 -5 -6 -6 -9 -9 -0 -0 2 -1 -1 -1 1 -4 -14 -12 -17 -16 -12 -10 -9 -9 -12 -9 -10 -9 -9 -9 -7 -9 -11 -14 -15 -16 -16 -18 -22 -20 -19 -16 -16 -17 -20 -19 -17 -17 -16
17 22 5 13 8 3 1 1 -4 -4 -5 -9 -5 -5 -8 -7 -5 -6 -1 -9 -13 -16 -18 -16 -16 -16 -16 -14 -13 -12 -12 -11 -7 -7 -7 -7 -10 -11 -14 -18 -16 -18 -16 -17 -17 -18 -19 -21 -21 -22 -22 -22 -22 -23
15 14 7 5 1 -2 -5 0 -3 -2 -4 -4 -3 -2 -7 -8 -7 -1 -12 -14 -15 -13 -17 -18 -16 -16 -16 -15 -13 -11 -11 -11 -10 -11 -10 -11 -11 -12 -12 -14 -15 -17 -19 -19 -25 -25 -23 -19 -21 -21 -23 -22 -22 -21
8 -4 -4 -7 -5 -9 -4 -3 1 -1 -4 -7 -5 -7 -12 -11 -7 -8 -16 -16 -15 -12 -14 -16 -15 -13 -10 -11 -12 -13 -14 -14 -11 -12 -16 -11 -13 -17 -21 -23 -26 -28 -26 -28 -26 -26 -25 -24 -19 -20 -20 -19 -16 -12
-4 -15 -11 -15 -10 -10 -10 -10 -9 -6 -10 -9 -9 -9 -12 -10 -9 -15 -15 -15 -14 -14 -15 -18 -19 -17 -19 -17 -12 -12 -16 -15 -12 -12 -17 -25 -26 -25 -23 -26 -26 -26 -29 -24 -24 -25 -24 -25 -20 -16 -10 -9 -9 -10
-21 -19 -18 -21 -17 -15 -15 -13 -13 -14 -11 -11 -15 -13 -13 -10 -16 -21 -20 -18 -17 -17 -17 -18 -23 -21 -15 -15 -15 -12 -14 -21 -22 -16 -19 -29 -26 -24 -26 -22 -21 -16 -25 -25 -24 -24 -21 -11 -10 -9 -8 -8 -6 -8
-22 -22 -19 -12 -15 -16 -13 -11 -12 -14 -19 -20 -21 -14 -12 -20 -22 -21 -17 -14 -15 -14 -13 -14 -17 -18 -17 -15 -13 -14 -14 -19 -16 -14 -19 -25 -25 -26 -21 -20 -18 -15 -19 -19 -19 -17 -14 -12 -10 -8 -7 -7 -8 -9
-22 -23 -24 -20 -18 -19 -20 -20 -23 -25 -23 -23 -19 -21 -22 -23 -24 -16 -12 -10 -11 -12 -11 -11 -14 -14 -15 -12 -11 -10 -9 -9 -15 -17 -16 -14 -14 -12 -13 -11 -12 -2 -8 -10 -10 -9 -11 -11 -10 -10 -9 -9 -8 -8
-22 -22 -22 -18 -19 -22 -27 -26 -26 -26 -26 -27 -20 -19 -19 -14 -15 -15 -13 -11 -11 -11 -11 -10 -9 -8 -10 -9 -7 -8 -7 -8 -9 -12 -12 -12 -9 -8 -6 -7 -8 -10 -12 -16 -9 -3 -6 -9 -10 -11 -11 -11 -9 -9
-23 -23 -19 -20 -23 -26 -27 -29 -27 -26 -24 -24 -23 -14 -14 -13 -11 -9 -10 -10 -10 -11 -11 -9 -9 -9 -11 -11 -11 -9 -11 -9 -9 -12 -15 -14 -12 -8 -8 -8 -8 -8 -9 -13 -12 -11 -6 -8 -8 -13 -11 -13 -14 -11
-22 -24 -21 -20 -23 -24 -26 -28 -27 -25 -24 -21 -19 -17 -18 -16 -11 -6 -7 -8 -8 -9 -9 -10 -10 -11 -12 -12 -13 -14 -13 -11 -11 -11 -10 -10 -9 -9 -9 -8 -8 -10 -13 -16 -17 -19 -16 -16 -18 -17 -18 -18 -17 -14
-22 -30 -26 -24 -24 -24 -27 -25 -26 -23 -22 -19 -20 -19 -18 -17 -17 -11 -8 -8 -9 -11 -10 -11 -13 -13 -12 -14 -13 -13 -9 -10 -11 -9 -11 -8 -8 -7 -7 -6 -10 -17 -15 -13 -15 -17 -18 -21 -22 -23 -21 -21 -21 -20
-24 -23 -22 -21 -22 -22 -22 -23 -20 -20 -19 -21 -19 -20 -22 -17 -18 -12 -9 -6 -9 -11 -12 -12 -11 -10 -11 -12 -13 -11 -12 -14 -13 -5 -5 -5 -6 -5 -6 -12 -13 -15 -18 -21 -20 -21 -21 -23 -22 -23 -23 -23 -22 -22
MSLP
1004.70 1004.63 1004.50 1004.66 1004.66 1004.76 1004.88 1005.31 1005.69 1005.92 1006.19 1006.48 1006.90 1007.35 1007.74 1008.10 1008.29 1009.37 1010.18 1010.51 1010.91 1011.67 1011.43 1011.36 1011.83 1011.88 1012.02 1012.17 1013.51 1015.22 1016.03 1016.61 1016.97 1017.20 1017.99 1018.57 1019.05 1018.89 1019.20 1019.26 1019.87 1020.82 1022.06 1022.24 1022.55 1022.55 1020.59 1018.28 1019.17 1019.27 1018.50 1018.79 1019.18 1019.84
1003.83 1003.77 1003.81 1003.82 1003.97 1004.09 1004.25 1004.66 1005.03 1005.35 1005.57 1005.89 1006.28 1006.76 1007.17 1007.55 1008.13 1008.99 1010.18 1010.44 1010.64 1011.69 1012.08 1011.60 1011.45 1011.70 1011.50 1011.55 1012.62 1014.38 1014.23 1014.64 1015.26 1016.45 1018.05 1018.66 1019.60 1019.99 1019.22 1019.77 1019.68 1020.23 1019.20 1019.84 1019.98 1019.00 1018.05 1017.80 1017.34 1017.24 1017.62 1017.91 1018.55 1018.77
1003.08 1003.08 1003.09 1003.20 1003.40 1003.46 1003.58 1003.91 1004.35 1004.63 1004.92 1005.32 1005.63 1006.10 1006.64 1007.04 1007.56 1008.37 1009.24 1010.27 1011.19 1012.01 1012.05 1012.18 1011.44 1010.85 1011.14 1011.33 1011.32 1012.50 1014.18 1014.20 1014.68 1015.19 1017.39 1018.50 1019.02 1019.18 1019.64 1019.19 1019.25 1018.66 1018.22 1018.30 1018.64 1017.75 1017.67 1017.42 1017.10 1017.08 1017.34 1017.56 1017.54 1017.73
1002.35 1002.40 1002.41 1002.55 1002.75 1002.98 1003.03 1003.29 1003.61 1003.97 1004.38 1004.74 1005.16 1005.57 1006.01 1006.51 1007.12 1007.84 1008.68 1009.49 1010.55 1011.64 1012.10 1011.43 1011.13 1010.89 1010.18 1010.64 1011.28 1011.55 1012.21 1013.66 1014.59 1015.45 1016.87 1018.03 1018.54 1018.08 1018.48 1018.01 1017.88 1016.85 1017.17 1016.98 1017.32 1017.09 1017.22 1016.82 1016.52 1016.35 1016.63 1016.98 1017.43 1017.68
1001.57 1001.61 1001.71 1001.90 1002.07 1002.29 1002.36 1002.75 1003.05 1003.37 1003.86 1004.23 1004.71 1005.15 1005.62 1006.10 1006.77 1007.39 1008.18 1008.62 1008.99 1010.14 1011.15 1011.64 1011.39 1010.48 1010.44 1010.64 1011.16 1011.71 1012.49 1013.37 1014.65 1015.95 1016.76 1017.46 1017.34 1017.59 1018.13 1017.74 1016.31 1015.33 1014.66 1015.74 1015.51 1015.20 1015.30 1015.40 1015.22 1015.38 1016.22 1016.47 1016.93 1017.43
1000.74 1000.79 1000.99 1001.42 1001.56 1001.56 1001.82 1002.21 1002.64 1003.08 1003.52 1003.91 1004.40 1004.90 1005.32 1005.89 1006.43 1007.49 1007.40 1008.00 1008.13 1008.97 1010.52 1011.73 1010.94 1010.48 1010.42 1010.41 1011.02 1012.08 1012.60 1013.41 1014.07 1014.84 1015.89 1015.82 1015.67 1015.88 1017.33 1016.92 1012.84 1013.07 1013.52 1013.66 1013.96 1013.76 1014.28 1014.19 1014.38 1014.70 1015.39 1015.64 1016.08 1016.71
999.91 999.88 999.96 1000.40 1000.72 1000.64 1000.96 1001.48 1002.01 1002.53 1003.29 1003.61 1004.20 1004.81 1005.03 1005.79 1006.16 1006.70 1007.08 1007.11 1007.39 1008.62 1009.76 1010.80 1011.22 1010.91 1010.85 1011.11 1011.88 1012.34 1012.69 1013.17 1013.53 1014.49 1014.75 1015.11 1015.24 1015.36 1015.83 1014.90 1009.78 1012.28 1012.74 1013.30 1013.17 1013.33 1013.88 1013.93 1014.05 1013.82 1014.71 1015.18 1015.62 1015.92
999.00 998.87 998.76 999.34 999.42 999.50 999.96 1000.59 1001.30 1002.01 1002.64 1003.37 1003.93 1004.56 1005.28 1005.83 1006.12 1006.72 1007.14 1006.86 1007.26 1008.35 1008.99 1009.89 1010.86 1011.58 1011.19 1011.46 1012.01 1011.96 1012.61 1013.20 1013.39 1013.55 1014.29 1014.51 1014.90 1014.83 1014.22 1010.34 1011.65 1011.91 1011.93 1012.38 1012.14 1012.33 1012.35 1012.70 1013.48 1013.78 1014.39 1015.24 1016.13 1016.56
997.81 997.81 997.72 997.71 997.40 998.38 999.19 999.96 1000.65 1001.50 1002.28 1002.91 1003.64 1004.30 1005.19 1005.83 1006.46 1006.56 1006.58 1006.98 1007.34 1008.33 1008.46 1009.26 1010.35 1011.46 1011.34 1011.23 1011.49 1011.92 1012.07 1012.63 1012.80 1012.90 1012.94 1013.47 1013.57 1012.58 1009.87 1010.19 1010.92 1010.63 1010.78 1010.78 1010.71 1011.94 1012.45 1013.35 1013.31 1013.88 1014.58 1015.17 1016.08 1016.35
996.24 996.54 996.72 997.06 997.64 998.16 998.76 999.55 1000.49 1001.34 1002.13 1003.02 1004.24 1004.80 1005.31 1005.56 1005.47 1006.15 1006.92 1007.25 1007.65 1007.79 1008.40 1009.39 1010.57 1011.71 1011.29 1011.40 1011.61 1011.88 1011.69 1011.77 1012.03 1011.96 1012.09 1011.90 1011.24 1009.48 1009.04 1009.87 1009.78 1009.63 1009.90 1010.35 1011.78 1012.43 1012.70 1013.28 1013.59 1013.89 1014.51 1014.83 1015.40 1016.12
996.51 995.95 996.13 996.62 997.00 997.37 998.37 999.26 1000.32 1001.48 1002.16 1003.12 1004.07 1004.97 1005.40 1005.38 1005.82 1006.84 1007.38 1007.82 1008.12 1008.39 1008.44 1009.07 1010.01 1010.88 1010.96 1011.22 1011.56 1011.42 1011.42 1011.54 1011.76 1011.66 1011.80 1011.26 1010.41 1008.16 1008.88 1009.27 1008.87 1009.31 1009.54 1009.93 1010.56 1011.00 1011.77 1012.38 1013.17 1013.94 1014.47 1015.05 1015.77 1016.69
996.52 995.76 995.76 996.14 996.35 997.02 998.46 999.34 1000.39 1001.50 1002.16 1002.76 1003.63 1004.63 1005.38 1005.68 1006.17 1006.96 1007.49 1008.21 1008.83 1009.23 1009.43 1009.38 1009.61 1009.37 1010.41 1010.53 1010.81 1011.25 1011.54 1011.78 1011.41 1011.44 1011.83 1011.32 1009.63 1008.57 1008.72 1008.89 1008.86 1009.05 1009.90 1010.67 1011.15 1011.58 1012.30 1013.23 1013.89 1014.52 1015.31 1016.32 1017.36 1018.37
997.57 996.86 996.84 997.04 997.16 998.01 998.68 999.50 1000.65 1001.59 1002.33 1003.43 1004.22 1004.92 1005.43 1005.91 1006.36 1007.09 1007.92 1008.97 1009.39 1009.15 1009.11 1009.27 1009.59 1009.48 1010.20 1010.04 1010.58 1011.08 1011.44 1011.58 1011.72 1012.11 1011.86 1011.15 1009.53 1009.33 1010.05 1010.36 1010.22 1010.40 1010.79 1011.39 1012.27 1012.94 1013.78 1014.95 1015.48 1016.16 1017.25 1018.14 1019.00 1020.06
998.43 998.41 998.34 998.64 999.13 999.26 999.60 1000.16 1001.05 1002.05 1002.85 1003.96 1004.77 1005.70 1006.15 1006.85 1007.46 1007.73 1008.12 1008.16 1007.95 1007.99 1008.36 1008.67 1009.19 1009.15 1009.58 1009.89 1009.91 1010.43 1010.49 1011.43 1012.26 1012.60 1011.97 1010.87 1011.46 1012.16 1012.67 1012.83 1012.76 1013.12 1013.28 1013.76 1014.42 1014.97 1015.75 1016.57 1017.69 1018.35 1018.95 1019.70 1020.42 1021.41
999.23 999.48 999.53 999.85 999.97 1000.17 1000.43 1000.87 1001.29 1002.48 1003.48 1004.38 1005.15 1006.11 1007.23 1007.47 1008.62 1009.18 1009.08 1008.88 1008.50 1008.13 1007.92 1008.49 1008.70 1008.63 1009.22 1009.20 1009.16 1009.84 1010.96 1011.72 1012.28 1012.48 1012.12 1012.80 1013.64 1014.21 1014.59 1014.53 1014.55 1014.86 1015.25 1015.93 1016.57 1016.79 1017.62 1018.34 1019.19 1020.31 1021.08 1021.45 1021.59 1022.22
1000.20 1000.44 1000.82 1000.92 1001.15 1001.20 1001.32 1001.69 1002.29 1002.87 1003.50 1004.53 1005.57 1007.19 1008.55 1009.24 1010.17 1010.32 1009.86 1009.33 1008.60 1008.27 1008.05 1008.11 1008.56 1008.56 1008.59 1008.93 1009.61 1010.48 1011.87 1012.56 1012.68 1013.54 1014.58 1015.22 1015.75 1016.26 1016.48 1016.64 1016.58 1016.47 1016.59 1017.32 1018.03 1018.64 1018.99 1019.49 1020.31 1021.37 1022.34 1022.50 1022.75 1022.88
1001.02 1002.00 1001.81 1001.73 1002.06 1002.28 1002.40 1002.89 1003.29 1003.82 1004.92 1005.51 1007.39 1008.41 1009.17 1009.55 1010.00 1010.28 1009.78 1009.43 1008.70 1008.56 1008.72 1008.78 1008.80 1008.72 1009.19 1010.16 1011.10 1011.77 1013.14 1014.10 1014.96 1015.70 1016.51 1017.52 1017.90 1018.04 1018.25 1018.15 1018.72 1018.63 1018.69 1018.60 1018.84 1019.56 1020.46 1021.06 1021.72 1022.37 1023.06 1023.61 1023.49 1023.60
1002.48 1002.69 1002.39 1002.53 1002.89 1003.35 1004.72 1005.19 1005.40 1006.00 1007.42 1008.42 1009.15 1010.36 1010.56 1011.12 1011.49 1011.16 1010.84 1010.29 1009.60 1009.26 1009.11 1009.39 1009.85 1010.65 1011.85 1012.78 1013.67 1015.00 1015.73 1016.40 1017.06 1017.72 1018.28 1018.84 1019.36 1019.64 1019.37 1019.54 1019.86 1020.11 1020.17 1020.13 1020.50 1021.32 1021.66 1022.09 1022.55 1023.25 1023.60 1024.10 1024.22 1024.35
1002.81 1003.01 1003.07 1003.14 1003.59 1004.93 1006.87 1007.75 1007.93 1008.64 1010.12 1010.66 1010.96 1011.41 1011.70 1012.15 1012.43 1012.40 1012.00 1011.37 1010.91 1010.54 1010.47 1011.00 1012.54 1014.32 1015.83 1017.03 1017.84 1018.24 1018.84 1018.82 1018.86 1018.96 1019.22 1019.71 1020.33 1020.40 1020.50 1020.77 1020.94 1021.41 1021.71 1022.00 1022.12 1022.40 1022.79 1022.98 1023.15 1023.50 1023.72 1023.82 1024.39 1024.81
1003.32 1003.88 1004.27 1004.25 1004.28 1006.38 1008.50 1009.62 1009.64 1010.17 1011.72 1012.09 1012.15 1012.64 1012.81 1013.02 1013.29 1013.40 1013.07 1012.85 1012.56 1013.01 1014.24 1016.16 1018.11 1019.44 1020.07 1020.55 1021.06 1021.28 1021.07 1020.66 1020.29 1019.81 1019.73 1020.26 1020.64 1021.15 1021.61 1022.33 1021.83 1022.05 1022.55 1022.82 1022.88 1023.03 1023.37 1023.70 1023.78 1023.87 1023.99 1024.09 1024.21 1024.39
1004.38 1004.96 1005.05 1005.13 1006.92 1008.24 1010.12 1011.15 1011.72 1012.17 1012.60 1013.04 1013.32 1013.37 1013.79 1013.84 1014.28 1014.63 1015.08 1015.24 1016.18 1019.29 1020.68 1021.83 1022.11 1022.52 1022.81 1022.64 1022.62 1022.65 1022.35 1022.21 1021.71 1021.51 1021.22 1020.98 1021.38 1021.79 1022.37 1022.90 1022.93 1022.96 1023.06 1023.41 1023.70 1024.03 1024.18 1024.38 1024.36 1024.39 1024.34 1024.37 1024.48 1024.56
1005.70 1005.70 1006.54 1006.81 1008.32 1009.77 1011.13 1012.06 1012.41 1012.76 1013.14 1013.86 1013.97 1014.35 1014.96 1015.52 1015.97 1016.59 1017.08 1018.24 1021.37 1023.44 1024.03 1024.28 1024.36 1024.20 1023.92 1023.64 1023.55 1023.36 1023.20 1022.68 1022.12 1021.83 1021.88 1021.80 1022.18 1022.75 1023.26 1023.52 1023.44 1023.89 1024.02 1024.24 1024.42 1024.64 1024.82 1024.68 1024.67 1024.75 1024.68 1024.55 1024.47 1024.35
1006.62 1006.96 1008.50 1009.39 1010.19 1011.34 1013.10 1012.61 1012.84 1013.31 1013.73 1014.47 1014.69 1015.26 1016.39 1016.79 1017.32 1017.56 1019.67 1022.00 1023.94 1025.05 1025.38 1025.44 1025.07 1024.62 1024.40 1024.06 1023.97 1023.74 1023.53 1023.06 1022.72 1022.73 1022.79 1022.96 1023.21 1023.69 1023.86 1024.04 1024.01 1024.43 1024.76 1024.93 1024.78 1024.86 1025.04 1024.71 1024.82 1024.84 1024.67 1024.50 1024.41 1024.32
1008.69 1010.93 1012.21 1012.89 1013.35 1014.15 1013.88 1013.86 1013.89 1014.27 1014.68 1015.19 1015.69 1016.93 1017.87 1018.27 1018.34 1019.40 1022.17 1024.15 1025.32 1025.74 1025.91 1025.87 1025.50 1024.74 1024.30 1024.22 1024.29 1024.28 1024.14 1023.76 1023.54 1023.63 1023.87 1024.07 1024.51 1024.84 1024.66 1024.84 1024.84 1024.97 1025.22 1025.07 1024.96 1025.18 1024.88 1024.60 1024.65 1024.69 1024.56 1024.52 1024.36 1024.25
1011.30 1016.50 1016.56 1016.63 1016.49 1016.10 1015.98 1015.93 1015.93 1015.82 1016.86 1017.25 1017.69 1018.48 1019.09 1019.28 1020.12 1022.13 1024.14 1025.52 1025.89 1026.20 1026.41 1026.44 1026.14 1025.68 1025.33 1024.90 1024.68 1024.68 1024.77 1024.53 1024.41 1024.54 1025.02 1025.18 1025.30 1025.36 1025.26 1024.92 1024.54 1024.84 1025.16 1025.20 1025.46 1025.24 1024.89 1024.64 1024.67 1024.59 1024.38 1024.21 1023.98 1023.70
1016.99 1020.23 1020.24 1020.16 1019.74 1019.03 1018.95 1018.59 1018.64 1019.00 1018.98 1019.49 1020.25 1020.31 1020.22 1020.75 1022.63 1025.06 1026.37 1026.89 1026.96 1026.93 1027.09 1027.07 1027.04 1026.48 1025.92 1025.69 1025.38 1025.09 1025.24 1025.38 1025.40 1025.16 1025.39 1025.53 1025.49 1025.49 1025.72 1025.93 1025.53 1024.85 1024.57 1024.62 1024.83 1025.05 1024.93 1024.48 1024.27 1024.01 1023.74 1023.52 1023.34 1023.17
1021.48 1022.88 1022.63 1022.29 1021.96 1021.44 1021.16 1021.10 1021.24 1021.53 1022.20 1022.95 1022.92 1022.03 1021.97 1023.64 1025.72 1026.99 1027.25 1027.53 1027.55 1027.35 1027.16 1027.04 1027.07 1026.93 1026.67 1026.19 1025.58 1025.24 1025.16 1025.41 1025.18 1025.09 1025.14 1025.25 1025.26 1025.27 1025.27 1025.15 1024.85 1024.50 1024.13 1024.17 1024.38 1024.31 1024.21 1023.98 1023.74 1023.44 1023.16 1022.90 1022.74 1022.66
1024.56 1025.07 1024.96 1024.26 1023.67 1023.78 1023.90 1024.36 1025.09 1026.02 1026.18 1026.08 1025.24 1025.13 1025.60 1026.66 1027.86 1027.88 1027.66 1027.63 1027.57 1027.26 1026.84 1026.55 1026.53 1026.53 1026.43 1026.16 1025.76 1025.14 1024.55 1024.33 1024.38 1024.71 1024.75 1024.74 1024.69 1024.69 1024.61 1024.50 1024.34 1024.07 1023.96 1023.81 1023.70 1023.50 1023.43 1023.26 1023.09 1022.89 1022.71 1022.46 1022.18 1022.00
1026.20 1026.37 1026.00 1025.46 1025.38 1026.26 1027.79 1028.35 1028.75 1029.03 1029.16 1028.37 1027.27 1027.25 1027.66 1028.19 1028.55 1028.51 1028.20 1027.95 1027.61 1027.26 1026.89 1026.57 1026.43 1026.28 1026.30 1026.04 1025.84 1025.68 1025.36 1025.07 1025.03 1025.21 1025.31 1025.25 1025.00 1024.72 1024.47 1024.34 1024.16 1023.96 1023.79 1023.61 1023.25 1022.95 1022.72 1022.55 1022.40 1022.28 1022.05 1021.90 1021.63 1021.46
1027.89 1027.76 1027.06 1027.02 1027.82 1029.40 1030.45 1030.85 1030.57 1030.38 1029.91 1029.44 1028.88 1028.25 1028.37 1028.70 1028.75 1028.54 1028.25 1027.99 1027.71 1027.60 1027.60 1027.52 1027.41 1027.12 1027.16 1026.92 1026.74 1026.50 1026.42 1026.23 1026.26 1026.42 1026.18 1025.79 1025.46 1024.88 1024.51 1024.23 1023.98 1023.75 1023.61 1023.52 1023.28 1022.90 1022.46 1022.15 1021.97 1021.87 1021.74 1021.69 1021.60 1021.44
1028.92 1028.53 1028.25 1028.81 1030.06 1030.98 1031.41 1031.48 1031.06 1030.65 1030.04 1029.49 1029.12 1028.92 1029.12 1029.11 1028.88 1028.68 1028.68 1028.60 1028.48 1028.32 1028.08 1028.01 1027.92 1027.97 1027.93 1027.81 1027.64 1027.30 1026.84 1026.46 1026.28 1026.23 1025.99 1025.64 1025.12 1024.64 1024.25 1023.96 1023.73 1023.53 1023.40 1023.28 1023.15 1023.07 1022.64 1022.36 1022.18 1021.98 1021.81 1021.69 1021.51 1021.35
1029.94 1030.36 1030.35 1030.47 1031.25 1031.57 1031.65 1031.47 1031.06 1030.59 1030.26 1029.89 1029.85 1029.56 1029.46 1029.33 1029.44 1029.76 1030.00 1029.38 1029.09 1029.02 1028.99 1028.95 1028.80 1028.62 1028.42 1028.21 1027.92 1027.71 1027.37 1026.94 1026.56 1026.11 1025.56 1025.02 1024.56 1024.09 1023.64 1023.30 1023.22 1023.13 1023.04 1022.92 1022.74 1022.69 1022.50 1022.27 1022.09 1021.91 1021.74 1021.46 1021.14 1020.88
1031.43 1031.36 1031.40 1031.80 1032.08 1032.07 1031.76 1031.43 1030.76 1030.50 1030.16 1030.13 1030.03 1029.96 1029.81 1029.66 1029.62 1029.86 1030.13 1030.01 1030.06 1030.00 1029.88 1029.61 1029.23 1028.86 1028.51 1028.04 1027.74 1027.48 1027.24 1026.92 1026.46 1025.59 1025.13 1024.57 1024.09 1023.49 1023.09 1023.11 1022.97 1022.97 1022.87 1022.81 1022.69 1022.60 1022.35 1022.17 1021.97 1021.69 1021.42 1021.15 1020.79 1020.42
Wind_Speed
23 23 23 20 23 21 19 17 18 18 18 18 18 20 21 20 20 6 2 4 5 2 3 5 2 4 2 3 7 5 5 0 2 3 4 4 3 7 4 4 9 9 9 6 3 2 11 7 6 9 7 1 6 6
24 23 23 21 21 20 20 21 20 20 20 20 21 20 21 21 22 13 3 2 3 3 2 1 3 3 3 4 7 2 1 5 6 5 1 4 2 1 4 4 2 4 9 9 13 9 1 8 6 10 6 7 7 6
24 23 22 21 22 21 18 19 21 18 16 18 17 17 18 19 20 15 4 5 4 2 4 2 5 6 4 5 4 8 2 4 4 2 5 3 4 4 6 6 2 5 5 4 5 5 6 9 8 4 7 7 6 7
22 22 21 22 21 23 21 20 20 21 19 18 17 19 18 18 18 19 5 5 5 3 3 5 3 4 2 6 4 2 7 6 5 3 3 4 4 3 4 3 5 6 8 6 3 4 1 8 9 7 9 8 6 5
21 21 20 20 22 24 23 18 16 20 19 19 17 17 15 15 18 11 6 7 8 6 4 3 2 6 3 7 8 7 10 7 3 2 3 4 3 4 1 2 6 8 8 5 7 8 7 6 8 13 11 12 11 9
19 20 21 19 22 24 23 22 19 18 16 15 15 11 11 12 14 5 2 5 10 4 3 2 3 2 3 6 8 7 6 3 3 5 4 3 3 4 4 5 20 11 5 10 7 9 7 9 7 6 11 11 10 9
20 20 23 21 22 25 26 25 19 18 12 19 19 15 15 15 4 3 2 2 16 6 3 2 4 3 2 4 2 3 3 2 4 3 2 4 2 6 4 8 26 6 8 7 10 4 5 6 9 7 9 10 6 5
21 22 21 20 24 30 25 22 22 22 21 20 19 18 12 5 6 4 3 2 12 4 3 4 3 0 3 3 3 3 4 2 1 3 1 3 3 3 8 22 11 9 8 8 14 13 17 8 4 10 6 5 5 8
26 25 24 15 26 24 20 19 21 21 21 20 18 14 4 3 2 1 13 7 3 2 3 2 7 6 3 2 3 2 3 4 4 7 5 7 5 9 16 13 8 16 14 16 15 10 11 10 15 8 7 4 7 11
13 20 23 18 15 24 22 22 20 18 17 16 6 3 3 4 4 11 5 2 4 3 3 2 3 2 2 2 1 3 3 4 5 5 4 6 6 20 11 7 11 14 16 14 4 6 1 7 13 10 12 10 12 7
11 13 17 20 16 22 24 25 25 24 17 2 3 3 1 6 3 2 3 4 1 2 2 3 5 6 4 5 4 2 3 3 4 5 6 4 5 19 13 15 17 12 13 12 15 16 8 9 9 10 8 7 5 6
19 8 6 10 25 29 26 25 25 6 2 6 6 5 3 3 3 6 7 3 5 8 3 6 6 4 1 3 4 3 5 2 6 4 3 4 9 13 6 11 17 18 14 9 9 12 4 4 3 4 5 6 5 7
13 12 20 19 16 19 21 23 17 20 11 4 3 4 3 3 6 8 7 1 1 3 5 4 1 4 2 1 3 3 6 7 4 4 5 8 12 6 4 4 5 3 1 4 5 6 8 7 6 5 8 6 9 8
13 12 14 14 10 12 13 14 20 13 5 3 3 6 6 3 3 4 6 6 4 3 6 4 4 4 3 4 3 4 4 4 5 5 9 10 1 5 5 3 3 3 4 6 6 7 9 9 8 8 8 5 8 8
17 17 15 12 9 7 6 9 13 4 3 3 4 5 5 2 2 1 2 1 2 1 5 3 3 3 3 4 4 3 4 4 6 8 5 2 3 4 4 3 3 5 5 5 3 6 8 7 8 8 5 4 7 7
15 14 9 14 15 11 8 9 3 2 3 4 4 3 0 4 2 1 1 1 2 3 2 3 4 3 4 3 6 6 4 7 6 3 3 4 5 4 4 5 4 4 6 7 6 4 7 7 7 7 4 5 4 5
13 2 7 12 11 11 16 4 3 4 3 3 2 3 2 3 3 3 2 2 0 3 3 2 4 8 1 2 5 5 6 3 3 2 3 6 6 6 3 5 5 4 4 6 7 7 5 5 6 4 6 1 3 2
4 1 8 8 6 6 4 5 3 3 4 3 2 2 2 2 0 2 3 4 2 3 4 4 2 3 3 2 1 3 3 2 1 4 4 5 5 5 4 5 6 4 5 6 7 5 4 4 5 3 4 2 3 3
5 5 9 8 6 6 5 5 4 4 1 0 1 2 2 2 2 1 2 3 2 1 2 2 2 2 2 3 3 3 4 4 3 3 2 4 5 4 4 4 5 5 6 3 3 4 3 3 3 3 2 2 3 1
18 16 11 12 7 5 6 3 3 4 3 1 2 3 2 3 1 2 4 5 4 4 8 6 4 3 2 2 1 3 5 5 5 4 1 2 3 3 5 3 3 4 4 3 4 4 3 3 3 2 2 2 2 2
7 5 10 6 4 6 5 2 4 2 1 4 2 2 2 2 3 4 4 5 6 6 4 2 2 3 5 3 1 2 4 4 3 2 2 3 2 3 3 3 2 2 3 2 3 3 4 2 1 1 1 1 0 2
2 9 4 6 4 4 5 3 3 1 4 2 3 2 3 3 3 3 2 7 5 2 2 2 3 2 4 3 3 2 4 6 3 2 3 3 1 1 1 0 2 2 2 2 2 2 1 1 0 0 1 1 1 2
7 6 5 6 5 6 2 1 3 4 3 1 0 3 3 3 2 1 6 4 3 2 2 2 5 4 4 4 4 2 4 5 3 4 3 3 3 1 2 2 2 3 2 2 1 2 1 1 1 0 1 1 2 3
11 9 7 6 6 3 2 4 3 2 3 4 3 4 3 2 3 5 5 3 1 1 4 7 5 4 1 1 2 2 4 3 2 3 4 2 2 2 3 2 2 1 2 1 2 0 0 1 1 1 1 1 1 1
9 10 7 8 5 5 6 4 5 4 4 4 3 3 3 3 4 5 3 3 4 4 5 5 4 3 2 2 2 2 3 3 3 4 3 1 1 2 3 2 2 3 3 2 2 2 3 2 2 2 3 3 4 4
11 6 6 6 5 5 4 4 5 4 3 4 4 2 2 4 6 4 2 3 3 2 5 4 3 5 3 3 3 4 4 2 2 2 2 2 1 3 2 2 3 4 2 2 3 0 3 3 3 5 4 6 6 5
8 6 4 1 2 3 2 3 3 5 5 5 4 5 4 6 4 2 1 1 3 3 4 3 2 2 2 3 3 2 2 3 2 2 1 1 3 3 3 1 2 4 1 2 3 4 4 4 4 5 5 4 4 4
3 4 6 7 4 5 4 4 6 5 4 4 1 7 5 4 1 3 2 4 4 5 5 2 2 2 2 2 3 5 4 3 1 0 1 1 1 1 1 2 2 8 4 2 4 4 4 4 5 5 6 6 6 4
4 5 3 4 4 6 6 5 3 2 3 2 2 4 3 3 2 2 3 5 4 3 4 5 6 3 1 1 4 5 7 8 9 8 7 3 3 2 5 4 3 3 3 3 7 7 6 6 7 6 7 5 5 3
5 4 4 5 6 6 3 2 3 2 2 1 2 5 4 2 2 1 2 3 6 6 3 5 5 6 6 7 6 6 3 4 5 4 3 4 5 7 6 5 5 5 3 3 4 5 7 3 4 3 2 2 2 4
4 3 3 5 4 2 2 2 2 2 2 3 3 4 3 1 1 8 8 5 4 4 6 7 7 5 6 7 7 7 5 2 2 3 3 5 6 6 6 6 5 4 3 4 4 3 4 3 3 4 5 6 6 7
5 5 3 4 2 1 1 2 2 3 3 3 3 2 1 2 4 3 7 7 7 7 6 5 5 5 5 3 2 3 8 6 6 7 8 7 7 7 8 6 4 3 3 4 4 3 3 4 4 4 5 8 8 8
2 3 4 3 2 2 4 4 1 2 2 1 2 1 0 1 3 3 2 8 7 4 6 6 6 6 6 7 7 7 6 5 10 13 14 15 14 12 7 4 3 2 4 4 4 3 5 5 6 8 8 8 9 9
Wind_Direction
274 260 257 260 248 239 242 237 243 237 229 226 219 211 208 202 187 138 162 178 130 175 225 162 220 141 108 160 148 161 107 201 75 161 159 186 174 204 146 164 170 157 158 196 103 175 272 155 75 168 202 314 162 188
270 264 257 258 246 240 241 234 229 238 235 230 219 211 213 207 197 168 144 163 111 117 259 182 214 254 228 192 128 234 141 157 163 115 194 96 147 346 153 218 119 226 197 182 188 205 241 209 195 208 177 159 197 194
265 264 258 261 250 248 239 241 238 227 226 227 221 204 204 209 204 177 126 133 70 78 315 31 221 232 161 199 178 129 274 179 172 136 149 155 185 129 162 232 117 249 164 212 103 197 211 215 236 236 187 208 215 202
258 255 257 250 254 247 244 243 239 225 213 223 216 214 206 205 203 186 157 155 123 133 165 270 335 233 210 152 163 124 130 100 98 93 113 143 163 181 195 169 187 191 147 152 278 245 121 265 234 224 218 231 251 230
257 254 250 258 248 249 243 231 235 220 222 219 217 222 218 211 207 188 173 183 164 148 183 257 288 233 174 166 153 123 132 116 133 102 109 201 152 115 316 64 253 170 192 165 207 204 182 218 210 221 229 238 229 226
263 251 244 246 256 247 236 224 214 215 215 207 197 193 185 200 205 187 179 194 182 139 136 206 295 280 163 154 146 151 148 112 131 144 190 205 207 114 136 207 251 219 157 201 217 217 196 222 229 196 202 223 230 208
261 256 246 241 263 242 225 221 201 186 202 212 195 202 199 190 177 149 186 195 176 133 174 200 286 344 79 99 72 115 126 169 134 161 178 150 184 164 146 227 247 206 213 211 224 181 247 191 228 221 203 231 219 222
270 265 255 236 258 227 210 207 203 200 191 185 172 162 160 204 137 133 197 119 158 132 185 185 241 109 192 153 138 165 133 128 319 145 172 162 130 167 232 240 259 247 223 225 234 204 228 248 197 238 182 144 209 235
260 248 252 231 218 201 192 195 193 191 184 175 175 162 135 120 161 198 172 137 95 159 181 135 153 218 198 136 115 152 139 162 157 203 201 157 176 215 230 226 203 231 221 240 252 193 217 219 242 229 192 176 212 245
262 227 234 230 231 201 187 175 163 167 162 146 88 147 142 197 182 124 146 194 191 187 188 179 74 154 150 67 34 127 177 191 192 213 135 206 226 244 232 186 222 231 229 234 135 253 225 237 228 220 205 215 215 227
315 235 228 214 224 204 169 166 165 166 146 92 115 151 125 162 76 110 181 176 206 197 172 175 166 145 236 128 170 221 175 179 188 223 188 207 244 247 231 221 236 229 231 227 224 243 188 195 205 216 218 201 167 153
352 183 154 197 194 156 157 158 156 116 123 124 106 100 121 175 181 182 175 151 175 210 230 166 207 164 171 107 109 182 173 197 218 132 187 218 250 253 228 221 232 235 246 217 199 223 167 127 59 113 98 112 103 101
13 92 98 92 102 136 144 148 119 120 99 73 73 120 154 183 212 180 169 195 161 180 194 169 168 124 78 119 129 158 182 214 103 177 219 223 242 238 299 314 274 335 55 101 87 86 99 94 62 70 103 91 100 95
91 67 80 95 107 124 127 142 143 126 82 105 144 174 189 183 233 206 178 174 220 135 152 121 119 139 167 160 163 198 199 121 198 200 223 235 273 306 327 330 352 341 59 88 87 94 96 97 84 69 81 98 120 111
79 75 70 79 88 104 147 181 173 95 116 162 162 201 188 184 46 235 251 74 294 156 130 80 60 135 169 197 196 145 161 213 205 222 232 256 288 307 327 355 82 96 88 80 77 98 102 102 102 97 66 85 98 108
82 64 52 68 58 56 65 79 92 132 177 173 158 131 112 64 311 11 298 129 226 139 76 69 129 185 204 208 181 195 190 207 245 226 331 338 341 358 357 1 17 98 109 106 78 80 103 105 116 119 117 76 93 114
62 34 63 68 62 51 38 55 36 40 43 14 44 8 64 69 167 171 141 163 272 90 160 125 171 211 49 193 206 177 207 270 313 351 12 5 350 349 5 45 21 39 63 85 98 85 84 94 110 102 102 54 85 91
67 309 82 65 60 48 31 26 62 63 71 19 346 325 44 93 73 3 1 6 30 122 125 173 118 212 204 249 299 17 2 338 33 8 17 5 358 353 27 54 31 31 80 85 94 98 97 111 102 86 91 94 92 72
142 81 55 54 78 87 70 17 34 107 63 33 50 23 64 87 74 6 341 337 348 320 66 52 151 176 85 24 6 9 350 2 333 340 7 22 3 26 52 71 89 75 69 47 63 85 91 80 110 122 111 99 103 51
83 73 67 60 52 67 58 11 38 88 135 144 42 31 53 58 61 23 19 11 20 32 39 36 43 35 345 4 343 297 305 329 316 314 350 60 53 41 38 338 62 99 91 78 79 89 76 62 39 64 70 90 105 117
46 35 34 63 61 60 86 31 44 112 127 82 272 34 64 35 40 32 24 353 60 34 56 7 6 341 327 285 317 311 307 344 342 307 309 323 35 44 50 34 35 33 70 62 76 42 52 64 69 73 75 87 296 286
31 36 55 20 78 56 74 22 118 223 70 179 57 47 48 49 41 20 348 53 57 38 12 327 311 304 323 337 323 313 286 298 305 320 16 81 74 64 69 291 47 48 62 68 86 123 140 232 66 42 41 318 332 312
31 32 50 17 71 45 339 317 68 13 81 78 86 80 41 52 21 319 73 62 89 38 268 267 273 250 246 280 292 327 4 347 28 23 21 44 59 28 99 60 35 93 47 332 121 137 158 281 228 217 297 18 28 349
33 46 30 39 20 45 334 37 34 50 51 36 54 76 30 9 332 63 75 60 345 334 356 344 328 330 311 252 23 357 359 342 49 59 18 23 62 17 17 9 352 284 202 205 103 200 283 308 316 340 297 293 277 280
69 6 14 11 10 18 31 24 10 42 59 23 70 51 13 323 70 55 58 17 347 353 355 344 338 351 10 311 0 23 25 9 37 51 20 79 159 336 359 330 296 242 172 94 0 22 337 341 285 264 265 260 266 275
67 357 33 351 4 32 353 45 31 26 16 62 38 325 349 62 62 52 17 323 321 332 342 339 328 337 5 10 341 1 352 4 9 74 309 205 112 112 119 44 9 327 208 144 109 301 272 253 243 249 252 260 265 273
51 351 345 69 325 298 34 49 35 50 52 29 351 1 42 63 57 333 314 33 317 313 301 294 265 253 299 323 307 275 256 205 230 205 262 221 215 190 141 109 321 261 298 215 209 212 246 264 269 267 268 266 250 251
69 33 12 333 27 5 44 44 35 26 0 349 298 35 69 52 0 327 340 339 328 307 294 272 226 233 279 306 305 325 337 314 193 238 289 54 59 109 106 317 295 319 330 296 265 251 237 245 254 259 260 263 273 240
32 344 298 18 52 51 43 26 30 12 335 307 48 67 75 60 329 314 308 321 312 314 17 17 18 29 45 18 35 30 29 27 35 31 20 356 346 351 357 336 320 318 324 320 308 299 264 243 238 239 247 245 258 263
1 354 349 45 45 37 356 338 344 328 297 321 277 113 92 82 350 284 337 2 27 32 18 38 30 34 30 21 4 5 14 44 51 41 338 331 312 308 313 311 309 306 304 293 294 298 306 340 320 327 307 286 266 284
320 330 56 46 72 16 333 320 275 257 308 23 8 71 87 119 336 38 24 7 13 19 33 30 28 27 20 12 5 347 335 300 15 320 281 286 284 288 288 286 284 274 279 277 277 275 278 288 266 279 282 283 280 282
358 39 59 76 60 338 304 17 5 52 8 33 12 8 27 70 77 59 7 7 17 16 5 5 0 344 336 296 273 267 277 297 310 322 307 311 301 293 287 282 277 273 282 291 286 273 276 273 278 271 276 280 276 271
27 16 40 66 46 31 11 343 36 102 62 64 30 32 162 94 105 135 92 26 12 353 358 347 341 333 315 306 296 315 336 313 312 321 318 315 314 318 321 295 307 317 298 292 289 279 282 280 284 280 279 276 279 282